Location: *
(41.7045°S, 179.2974°W)
Time: 05:22:43
(UTC+00:00)

Daily predictions for brighter satellites

Satellite Brightness Start Highest point End
(mag) Time Altitude Azimuth Time Altitude Azimuth Time Altitude Azimuth
COSMO-SKYMED 1 2.6 05:00:17 10° NNE 05:04:38 70° ESE 05:09:03 10° S
Cosmos 1821 Rocket 4.3 04:58:34 10° NNW 05:04:41 77° W 05:10:57 10° S
Cosmos 2237 Rocket 3.5 05:01:42 10° NE 05:05:46 21° E 05:09:50 10° SE
STARLINK-61 3.6 05:02:05 10° NW 05:06:02 72° NE 05:10:01 10° SE
SL-16 R/B 4.2 05:03:57 10° WNW 05:08:24 23° SW 05:12:54 10° S
CZ-4B R/B 4.2 05:03:50 10° SE 05:08:27 27° E 05:13:05 10° NNE
Cosmos 1633 2.7 05:05:26 10° N 05:09:04 84° W 05:12:46 10° S
STARLINK-1304 3.8 05:05:03 10° WNW 05:09:15 77° SW 05:13:28 10° SE
Iridium 96 3.7 05:08:38 10° SSE 05:10:11 26° E 05:11:44 10° NNE
STARLINK-1286 3.9 05:07:19 10° WNW 05:11:32 72° SW 05:15:48 10° SE
Cosmos 2228 Rocket 3.1 05:10:22 10° S 05:14:59 82° E 05:19:29 10° N
STARLINK-69 4.4 05:12:20 10° NNW 05:15:53 35° NE 05:19:23 10° ESE
STARLINK-21 4.4 05:13:52 10° NNW 05:17:23 33° NE 05:20:47 11° ESE
STARLINK-45 4.2 05:15:34 10° NNW 05:19:11 38° NE 05:22:35 11° ESE
Cosmos 1934 Rocket 4.1 05:12:56 10° N 05:19:17 85° E 05:25:46 10° S
STARLINK-70 4.2 05:17:09 10° NNW 05:20:46 38° NE 05:24:06 12° ESE
STARLINK-76 4.3 05:18:42 10° NNW 05:22:17 37° NE 05:25:32 12° ESE
STARLINK-71 4.2 05:18:38 10° NNW 05:22:28 41° NE 05:25:57 12° ESE
Cosmos 158 Rocket 4.3 05:18:25 10° N 05:23:22 48° ENE 05:28:29 10° SSE
STARLINK-23 4.2 05:20:19 10° NNW 05:23:56 38° NE 05:27:06 13° ESE
Cosmos 1743 Rocket 4.5 05:21:07 10° NNW 05:25:24 52° W 05:29:48 10° S
STARLINK-1299 4.3 05:21:18 10° WNW 05:25:31 51° SSW 05:29:38 11° SE
STARLINK-32 4.1 05:21:55 10° NNW 05:25:33 40° NE 05:28:40 13° ESE
Cosmos 2333 Rocket 2.3 05:19:53 10° NNW 05:25:40 88° WSW 05:31:32 10° SSE
STARLINK-1306 4.2 05:21:47 10° WNW 05:25:59 56° SSW 05:30:00 11° SE
Cosmos 2112 Rocket 4.2 05:21:41 10° N 05:26:51 53° ENE 05:32:01 10° SSE
STARLINK-40 4.1 05:23:34 10° NNW 05:27:14 41° NE 05:30:18 14° ESE
Cosmos 405 3.2 05:24:41 10° S 05:28:10 47° ESE 05:31:35 10° NNE
STARLINK-44 4.0 05:25:07 10° NNW 05:28:48 42° NE 05:31:48 14° ESE
STARLINK-1281 4.1 05:25:04 10° WNW 05:29:11 56° SSW 05:33:01 12° SE
Okean O Rocket 2.2 05:25:52 10° SSE 05:30:01 37° E 05:34:09 10° NNE
Cosmos 1605 Rocket 4.0 05:23:59 10° N 05:30:08 67° E 05:36:18 10° SSE
H-2A R/B 3.4 05:26:49 10° SSE 05:30:26 35° E 05:34:02 10° NNE
STARLINK-37 3.9 05:26:54 10° NNW 05:30:38 48° NE 05:33:38 15° ESE
Meteor 1-10 Rocket 4.2 05:25:26 10° S 05:31:06 66° E 05:36:47 10° NNE
FENGYUN 3A 4.4 05:26:04 10° S 05:31:25 55° WSW 05:36:41 10° NNW
Cosmos 2278 Rocket 2.7 05:26:13 10° S 05:31:29 37° ESE 05:36:42 10° NE
STARLINK-1051 4.4 05:27:43 10° NNW 05:31:34 37° NE 05:34:37 15° ESE
STARLINK-29 3.7 05:28:29 10° SW 05:31:34 35° SSE 05:33:59 14° E
STARLINK-36 3.9 05:28:21 10° NNW 05:32:03 45° NE 05:34:57 16° ESE
Sich 1 3.1 05:28:12 10° N 05:32:30 57° E 05:36:54 10° SSE
Cosmos 1844 Rocket 3.9 05:27:39 10° SW 05:33:08 48° WNW 05:38:33 10° N
STARLINK-68 3.8 05:30:08 10° NNW 05:33:54 52° NE 05:36:47 16° ESE
STARLINK-1310 4.2 05:30:06 10° WNW 05:34:11 52° SSW 05:37:49 13° SE
STARLINK-63 3.8 05:31:43 10° NNW 05:35:30 52° NE 05:38:18 17° ESE
STARLINK-35 3.8 05:33:14 10° NNW 05:36:59 51° NE 05:39:42 18° ESE
SMAP 3.9 05:33:34 10° SE 05:37:42 29° E 05:41:47 10° NNE
STARLINK-51 3.7 05:34:55 10° NW 05:38:42 53° NE 05:41:22 18° ESE
STARLINK-1319 4.3 05:35:07 10° WNW 05:39:11 48° SSW 05:42:36 14° SE
Cosmos 1346 Rocket 3.4 05:36:01 10° NNW 05:39:55 59° W 05:43:55 10° S
STARLINK-30 3.7 05:36:31 10° NW 05:40:19 54° NE 05:42:55 19° ESE
STARLINK-1028 4.1 05:37:30 10° NNW 05:41:30 45° NE 05:44:12 19° ESE
STARLINK-72 3.7 05:38:13 10° NW 05:42:01 57° NE 05:44:35 20° ESE
PSLV R/B 4.4 05:38:16 10° S 05:42:26 63° WSW 05:46:28 10° NNW
Cosmos 2360 Rocket 4.1 05:38:12 10° WNW 05:42:58 27° SW 05:47:47 10° S
STARLINK-1277 4.4 05:40:08 10° WNW 05:44:10 45° SSW 05:47:22 15° SE
STARLINK-59 3.5 05:41:31 10° NW 05:45:21 64° NE 05:47:48 21° ESE
STARLINK-1021 4.0 05:42:24 10° NNW 05:46:27 50° NE 05:48:58 21° ESE
STARLINK-56 3.5 05:43:04 10° NW 05:46:55 63° NE 05:49:17 22° ESE
Cosmos 2056 Rocket 3.8 05:42:35 10° S 05:47:44 44° ESE 05:52:45 10° NE
STARLINK-73 3.5 05:44:42 10° NW 05:48:33 65° NE 05:50:52 23° ESE
ATLAS 2AS CENTAUR R/B 4.0 05:44:31 10° SSW 05:48:57 19° SSE 05:51:07 16° SE
STARLINK-38 3.5 05:46:21 10° NW 05:50:12 68° NE 05:52:27 24° ESE
SL-24 R/B 4.4 05:45:41 10° N 05:50:45 81° E 05:55:40 10° S
STARLINK-1019 3.9 05:47:20 10° NW 05:51:25 55° NE 05:53:46 24° ESE
STARLINK-24 3.5 05:47:42 10° NW 05:51:45 75° NE 05:54:10 23° ESE
STARLINK-65 3.4 05:47:59 10° NW 05:51:52 70° NE 05:54:03 24° ESE
CZ-2C R/B 4.1 05:53:39 18° SE 05:53:39 18° SE 05:56:31 10° SSE
NOAA 6 4.0 05:48:07 10° SSE 05:53:20 86° ENE 05:58:30 10° NNW
STARLINK-53 3.4 05:49:53 10° NW 05:53:47 76° NE 05:55:58 25° ESE
STARLINK-25 3.3 05:51:29 10° NW 05:55:13 72° NE 05:57:08 27° ESE
SJ-7 4.4 05:51:34 10° SSE 05:55:39 86° W 05:59:40 10° NNW
STARLINK-1012 3.8 05:52:15 10° NW 05:56:22 60° NE 05:58:33 26° ESE
Cosmos 1818 3.6 05:51:18 10° NNW 05:56:39 66° ENE 06:00:42 18° SE
Cosmos 1666 Rocket 3.4 05:54:36 10° N 05:58:59 76° E 06:03:24 10° S
Starlink 7 placeholder 4.4 05:57:08 10° WSW 05:59:54 33° NW 06:02:30 10° NNE
Shenzhou-11 Module 1.5 05:58:13 10° W 06:00:48 75° S 06:01:12 57° ESE
Cosmos 1633 Rocket 3.0 05:56:42 10° N 06:01:06 66° E 06:05:35 10° SSE
BREEZE-M DEB (TANK) 3.8 05:59:44 10° WSW 06:03:48 80° SSE 06:20:16 10° ENE
YAOGAN 6 3.1 06:03:03 30° ESE 06:04:08 38° E 06:07:35 10° NNE
Centaur D AC-29 3.7 05:56:18 10° WNW 06:05:38 23° NNW 06:09:26 10° NE
Cosmos 2219 Rocket 3.2 06:00:48 10° NW 06:06:15 46° WSW 06:11:47 10° SSE
STARLINK-1026 3.6 06:02:09 10° NW 06:06:19 73° NE 06:08:07 33° ESE
Cosmos 2100 Rocket 4.1 06:00:56 10° NNE 06:06:55 51° E 06:12:55 10° SSE
Cosmos 1680 Rocket 4.1 06:02:26 10° NNW 06:07:39 58° WSW 06:12:54 10° SSE
STARLINK-52 3.0 06:04:34 10° SW 06:07:49 61° SE 06:08:30 47° E
STARLINK-50 3.5 06:03:50 10° NW 06:07:54 87° SW 06:09:41 33° SE
STARLINK-1338 4.5 06:07:00 10° SW 06:10:05 26° SSE 06:10:05 26° SSE
STARLINK-1013 3.6 06:07:04 10° NW 06:11:15 80° NE 06:12:51 37° ESE
FALCON 9 DEB 3.4 06:09:12 10° SW 06:12:38 47° SSE 06:12:55 45° SE
STARLINK-1371 4.5 06:12:26 10° SW 06:15:21 27° SSE 06:15:21 27° SSE
STARLINK-1009 3.5 06:12:02 10° NW 06:16:14 87° NE 06:17:38 41° SE
Cosmos 1452 Rocket 4.4 06:13:26 10° S 06:17:28 29° SE 06:17:28 29° SE
STARLINK-1341 4.5 06:15:09 10° SW 06:18:02 28° SSE 06:18:02 28° SSE
SL-4 R/B 3.2 06:16:40 10° WSW 06:20:14 39° NW 06:24:02 10° NNE
STARLINK-1374 4.5 06:17:43 10° SW 06:20:30 28° S 06:20:30 28° S
Cosmos 1980 3.7 06:15:28 10° NNW 06:21:10 88° WSW 06:25:38 17° SSE
STARLINK-1015 3.6 06:17:01 10° NW 06:21:12 86° SW 06:22:26 46° SE
Cosmos 1420 Rocket 4.3 06:16:25 10° S 06:21:36 45° ESE 06:24:07 27° ENE
Cosmos 2061 Rocket 4.2 06:17:51 10° NNE 06:23:44 44° E 06:28:12 17° SSE
STARLINK-1339 4.5 06:20:26 10° SW 06:23:10 29° S 06:23:10 29° S
Cosmos 1238 Rocket 3.1 06:19:29 10° N 06:24:09 76° W 06:27:18 15° S
STARLINK-1016 3.6 06:22:00 10° NW 06:26:12 80° SW 06:27:14 50° SE
Envisat 2.9 06:21:44 10° SSE 06:26:56 84° ENE 06:32:03 10° NNW
Meteor 1-20 Rocket 4.3 06:23:02 10° N 06:28:37 56° E 06:32:29 21° SSE
NOSS 0 Rocket 4.3 06:23:43 10° NW 06:29:56 67° WSW 06:35:22 14° SSE
Cosmos 1812 4.4 06:26:47 10° SSW 06:30:24 36° W 06:33:57 10° NNW
Feng Yun 1-1 Rocket 4.2 06:27:58 27° SSE 06:30:54 57° E 06:36:18 10° N
STARLINK-1008 3.7 06:26:59 10° WNW 06:31:11 73° SW 06:32:01 54° SSE
STARLINK-81 3.8 06:29:08 10° WNW 06:33:00 58° SSW 06:33:34 51° S
Helios 1A Rocket 2.7 06:33:10 54° SSE 06:34:02 78° ENE 06:38:05 10° N
Cosmos 2016 Rocket 4.1 06:28:09 10° NNE 06:34:13 53° E 06:39:15 16° SSE
STARLINK-54 3.9 06:30:50 10° WNW 06:34:39 51° SSW 06:35:11 47° S
Cosmos 1461 2.8 06:31:13 10° SW 06:35:12 74° WNW 06:36:31 39° NNE
Cosmos 2173 Rocket 3.9 06:29:44 10° N 06:36:02 81° E 06:42:19 10° S
STARLINK-77 3.8 06:32:13 10° WNW 06:36:04 55° SSW 06:36:31 51° S
STARLINK-1014 3.8 06:32:00 10° WNW 06:36:12 68° SW 06:36:51 57° SSE
Meteor 1-27 Rocket 4.5 06:31:18 10° SSW 06:37:07 58° W 06:42:56 10° N
COSMOS 2428 4.4 06:32:33 10° WNW 06:37:34 30° SW 06:42:39 10° S
STARLINK-1010 4.0 06:35:33 10° WNW 06:39:48 60° SSW 06:40:24 54° S
Lacrosse 5 rocket 1.6 06:36:14 10° NNW 06:40:18 59° NE 06:40:18 59° NE
STARLINK-79 4.0 06:37:11 10° WNW 06:40:59 50° SSW 06:41:14 49° SSW
STARLINK-1025 3.8 06:37:01 10° WNW 06:41:10 62° SW 06:41:36 58° S
STARLINK-78 4.0 06:38:49 10° WNW 06:42:36 48° SSW 06:42:46 48° SSW
ATLAS 5 CENTAUR R/B 2.7 06:35:39 10° NW 06:42:54 83° SW 06:46:25 32° SSE
Cosmos 1459 Rocket 3.9 06:36:57 10° N 06:43:11 90° WSW 06:49:35 10° S
STARLINK-57 4.2 06:40:37 10° WNW 06:44:22 45° SSW 06:44:29 45° SSW
STARLINK-49 4.2 06:42:09 10° WNW 06:45:55 46° SSW 06:45:57 46° SSW
STARLINK-1017 4.0 06:42:00 10° WNW 06:46:07 57° SSW 06:46:20 57° SSW
STARLINK-27 4.2 06:43:44 10° WNW 06:47:26 45° SSW 06:47:26 45° SSW
SL-24 R/B - RUBIN 2 3.6 06:42:48 10° NNW 06:47:56 87° ENE 06:48:23 73° SE
Cosmos 1470 Rocket 3.8 06:43:42 10° NNW 06:48:12 70° W 06:50:24 30° S
CZ-4B R/B 4.4 06:43:58 10° S 06:49:05 42° WSW 06:54:15 10° NW
STARLINK-74 4.3 06:45:25 10° WNW 06:49:01 44° SW 06:49:01 44° SW
Cosmos 2237 Rocket 2.7 06:43:45 10° NW 06:49:20 57° WSW 06:52:55 22° S
Cosmos 371 Rocket 4.4 06:44:56 10° S 06:47:37 31° S 06:47:37 31° S
STARLINK-39 4.4 06:47:03 10° WNW 06:50:34 42° SW 06:50:34 42° SW
STARLINK-1023 4.1 06:47:01 10° WNW 06:51:07 53° SSW 06:51:07 53° SSW
STARLINK-31 4.5 06:48:42 10° WNW 06:52:08 41° SW 06:52:08 41° SW
Cosmos 1943 Rocket 4.2 06:48:07 10° S 06:48:58 13° S 06:48:58 13° S
CORIOLIS 4.4 06:47:23 12° S 06:52:32 70° WSW 06:57:57 10° NNW
Cosmos 2369 Rocket 4.4 06:50:13 10° S 06:50:30 11° S 06:50:30 11° S
STARLINK-1007 4.3 06:52:03 10° WNW 06:55:56 49° SW 06:55:56 49° SW
NOAA 12 4.4 06:53:40 17° S 06:57:49 66° WSW 07:03:02 10° NNW
BREEZE-M DEB (TANK) 4.2 06:40:31 10° NW 06:58:24 72° NNE 06:59:38 57° E
Cosmos 1441 Rocket 4.1 06:58:05 10° NNW 07:01:16 48° WNW 07:01:16 48° WNW
SL-16 R/B 2.2 06:59:11 10° NNW 07:04:23 69° NNE 07:04:23 69° NNE
Okean O Rocket 4.0 07:02:43 10° SSW 07:06:08 22° WSW 07:09:31 10° WNW
Cosmos 1802 Rocket 4.3 07:03:28 10° NNW 07:09:54 70° W 07:16:24 10° S
IRS-1C Rocket 4.4 07:09:07 42° S 07:10:52 66° WSW 07:16:07 10° NNW
BREEZE M DEB (TANK) 4.1 06:49:27 10° WSW 07:12:02 66° SSE 07:13:12 58° SE
Cosmos 1725 Rocket 3.9 07:06:12 10° N 07:12:29 85° E 07:13:48 59° SSE
NOSS 3-4 (A) 4.2 07:07:45 10° SSW 07:13:16 42° SSE 07:13:16 42° SSE
NOSS 3-4 (C) 4.3 07:07:51 10° SSW 07:13:20 41° SSE 07:13:20 41° SSE
Cosmos 2278 Rocket 3.8 07:10:25 10° SW 07:15:28 33° WNW 07:20:29 10° NNW
Cosmos 2346 Rocket 4.4 07:10:48 10° S 07:16:59 84° W 07:23:03 10° N
SL-08 R/B 4.5 07:17:11 10° NNW 07:23:19 77° W 07:24:22 61° SSW
CZ-2C R/B 4.0 07:35:11 32° SSW 07:35:11 32° SSW 07:38:06 10° SSW
ATLAS 2AS CENTAUR R/B 3.5 07:34:25 10° SSW 07:38:35 40° SSW 07:38:35 40° SSW
ATLAS 5 CENTAUR R/B 4.4 08:23:06 10° W 08:27:59 23° SW 08:27:59 23° SW
